Voltar ao catálogo

FENGYUN 1C DEB

AtivoSSO
NORAD 31972·DEBRIS·🇨🇳 China

Lançado May 10, 1999 de Taiyuan Satellite Launch Center

Loading…

Próximas Passagens (próximas 24 horas)

TLE

AtualizadoSource: Space-Track

Época: Sep 12, 2026, 10:23 UTC

1 31972U 99025CNZ 26255.43277942  .00000217  00000-0  15217-3 0  9994
2 31972  99.1761 306.8585 0076240 350.7096  23.1116 14.07645985988111

Acompanhe FENGYUN 1C DEB em tempo real com AllMySat

Download on the App Store